Terminal Aerodrome Forecast
Issued by NWS North Platte, NE

Home | Current Version | Previous Version | Graphics & Text | Print | Product List | Glossary On
Versions: 1 2 3 4 5 6 7 8 9 10 11 12 13 14
743
FTUS43 KLBF 141125
TAFVTN
TAF
KVTN 141125Z 1412/1512 29004KT P6SM SCT050
     FM142100 16004KT P6SM SCT150=

USA.gov is the U.S. government's official web portal to all federal, state and local government web resources and services.